Location: Godiavel Galaoual
(15.2485°N, 12.6604°W)
Time: 01:52:44
(UTC+00:00)

Transit 4A - Pass Details

Date: 17 June 2021
Orbit: 872 x 972 km, 66.8° (Epoch: 29 July)

Event Time Altitude Azimuth Distance (km) Brightness Sun altitude
Rises 10:50:06 0° 229° (SW) 3,600 10.7 60.3°
Reaches altitude 10° 10:53:11 10° 243° (WSW) 2,639 10.1 61.0°
Maximum altitude 10:57:58 24° 295° (WNW) 1,820 9.5 62.0°
Drops below altitude 10° 11:02:41 10° 347° (NNW) 2,585 10.4 63.1°
Sets 11:05:41 0° 1° (N) 3,509 11.1 63.8°
